Radiation Dose at Monitoring Post of Fukushima Daini Nuclear Power Station
Date,Time,MP-1(microSv/h),MP-2(microSv/h),MP-3(microSv/h),MP-4(microSv/h),MP-5(microSv/h),MP-6(microSv/h),MP-7(microSv/h),Wind Direction,Wind Velocity(m/s),Rain
2017/04/19,00:00,0.371,0.229,0.381,0.352,0.325,0.187,0.157,west-northwest,5.0,No
2017/04/19,00:10,0.373,0.230,0.384,0.353,0.326,0.187,0.158,west-northwest,3.6,No
2017/04/19,00:20,0.372,0.230,0.383,0.354,0.325,0.187,0.158,west-northwest,4.2,No
2017/04/19,00:30,0.372,0.228,0.383,0.351,0.326,0.187,0.158,north,2.2,No
2017/04/19,00:40,0.373,0.228,0.382,0.354,0.326,0.187,0.158,north-northeast,2.5,No
2017/04/19,00:50,0.371,0.229,0.383,0.353,0.325,0.187,0.158,northeast,1.3,No
2017/04/19,01:00,0.375,0.229,0.384,0.351,0.325,0.186,0.158,north-northeast,2.1,No
2017/04/19,01:10,0.371,0.229,0.384,0.354,0.326,0.187,0.158,east,1.9,No
2017/04/19,01:20,0.372,0.229,0.382,0.355,0.325,0.188,0.157,southeast,1.1,No
2017/04/19,01:30,0.373,0.229,0.383,0.353,0.327,0.188,0.158,east-southeast,2.5,No
2017/04/19,01:40,0.370,0.229,0.383,0.354,0.326,0.188,0.158,east-southeast,2.0,No
2017/04/19,01:50,0.371,0.229,0.382,0.352,0.324,0.187,0.158,south-southeast,1.9,No
2017/04/19,02:00,0.373,0.230,0.383,0.352,0.327,0.187,0.158,south-southeast,1.8,No
2017/04/19,02:10,0.371,0.229,0.383,0.354,0.327,0.186,0.157,south-southeast,2.7,No
2017/04/19,02:20,0.374,0.229,0.382,0.355,0.326,0.187,0.158,south-southwest,4.3,No
2017/04/19,02:30,0.372,0.229,0.383,0.354,0.328,0.187,0.159,southwest,6.4,No
2017/04/19,02:40,0.372,0.227,0.383,0.354,0.326,0.187,0.158,southwest,5.4,No
2017/04/19,02:50,0.372,0.228,0.383,0.353,0.325,0.187,0.159,southwest,4.3,No
2017/04/19,03:00,0.370,0.229,0.383,0.354,0.327,0.188,0.157,west-southwest,4.4,No
2017/04/19,03:10,0.371,0.228,0.382,0.355,0.326,0.186,0.158,west-southwest,4.4,No
2017/04/19,03:20,0.373,0.230,0.383,0.353,0.326,0.187,0.159,west-southwest,3.6,No
2017/04/19,03:30,0.373,0.229,0.383,0.355,0.325,0.187,0.159,west-northwest,2.6,No
2017/04/19,03:40,0.372,0.230,0.383,0.354,0.326,0.188,0.158,west-southwest,2.0,No
2017/04/19,03:50,0.373,0.228,0.382,0.353,0.324,0.187,0.158,west-southwest,3.1,No
2017/04/19,04:00,0.372,0.230,0.384,0.354,0.327,0.187,0.158,southwest,5.6,No
2017/04/19,04:10,0.371,0.229,0.383,0.353,0.326,0.187,0.158,southwest,5.9,No
2017/04/19,04:20,0.372,0.229,0.382,0.352,0.326,0.188,0.158,southwest,7.4,No
2017/04/19,04:30,0.371,0.229,0.381,0.354,0.327,0.188,0.158,southwest,8.4,No
2017/04/19,04:40,0.372,0.230,0.384,0.354,0.326,0.187,0.158,southwest,7.9,No
2017/04/19,04:50,0.372,0.228,0.381,0.355,0.324,0.188,0.158,southwest,7.1,No
2017/04/19,05:00,0.372,0.228,0.384,0.355,0.327,0.188,0.158,southwest,7.0,No
2017/04/19,05:10,0.372,0.230,0.385,0.352,0.325,0.188,0.158,southwest,5.8,No
2017/04/19,05:20,0.373,0.229,0.382,0.354,0.327,0.188,0.158,southwest,7.3,No
2017/04/19,05:30,0.370,0.229,0.383,0.353,0.326,0.186,0.158,southwest,6.6,No
2017/04/19,05:40,0.371,0.229,0.384,0.352,0.325,0.187,0.159,southwest,6.2,No
2017/04/19,05:50,0.371,0.230,0.383,0.354,0.326,0.187,0.158,southwest,6.8,No
2017/04/19,06:00,0.371,0.228,0.385,0.354,0.326,0.188,0.157,southwest,7.1,No
2017/04/19,06:10,0.372,0.228,0.384,0.353,0.324,0.188,0.156,southwest,7.7,No
2017/04/19,06:20,0.371,0.229,0.383,0.354,0.326,0.188,0.157,south-southwest,7.4,No
2017/04/19,06:30,0.372,0.229,0.384,0.353,0.326,0.188,0.157,south-southwest,6.3,No
2017/04/19,06:40,0.373,0.228,0.382,0.353,0.324,0.187,0.158,south-southwest,3.1,No
2017/04/19,06:50,0.371,0.230,0.382,0.353,0.326,0.188,0.157,south-southwest,5.9,No
2017/04/19,07:00,0.373,0.228,0.384,0.353,0.325,0.188,0.157,south-southwest,8.1,No
2017/04/19,07:10,0.370,0.229,0.382,0.353,0.328,0.188,0.157,south-southwest,10.2,No
2017/04/19,07:20,0.370,0.229,0.380,0.353,0.325,0.188,0.157,south-southwest,12.9,No
2017/04/19,07:30,0.371,0.229,0.384,0.352,0.327,0.189,0.156,south-southwest,12.1,No
2017/04/19,07:40,0.372,0.228,0.380,0.353,0.325,0.188,0.157,south-southwest,11.5,No
2017/04/19,07:50,0.372,0.229,0.382,0.352,0.327,0.187,0.157,south-southwest,9.2,No
2017/04/19,08:00,0.371,0.228,0.382,0.353,0.325,0.188,0.157,south-southwest,8.2,No
2017/04/19,08:10,0.370,0.229,0.384,0.352,0.327,0.188,0.158,south-southwest,8.2,No
2017/04/19,08:20,0.372,0.229,0.383,0.354,0.325,0.187,0.158,south-southwest,8.4,No
2017/04/19,08:30,0.370,0.229,0.382,0.353,0.327,0.188,0.158,southwest,7.4,No
2017/04/19,08:40,0.373,0.227,0.383,0.356,0.324,0.188,0.158,west-southwest,4.0,No
2017/04/19,08:50,0.370,0.228,0.384,0.351,0.327,0.189,0.158,west-southwest,5.9,No
2017/04/19,09:00,0.374,0.227,0.382,0.354,0.326,0.189,0.157,west,3.6,No
2017/04/19,09:10,0.369,0.228,0.383,0.354,0.322,0.186,0.157,west,5.1,No
2017/04/19,09:20,0.369,0.229,0.382,0.350,0.326,0.188,0.157,west-southwest,3.9,No
2017/04/19,09:30,0.373,0.229,0.384,0.353,0.325,0.187,0.157,west-southwest,4.2,No
2017/04/19,09:40,0.368,0.229,0.382,0.355,0.324,0.187,0.158,northwest,3.9,No
2017/04/19,09:50,0.372,0.229,0.382,0.351,0.328,0.188,0.157,northwest,6.4,No
2017/04/19,10:00,0.369,0.229,0.382,0.356,0.324,0.188,0.156,west-northwest,5.4,No
2017/04/19,10:10,0.374,0.228,0.384,0.353,0.329,0.187,0.158,west-northwest,3.2,No
2017/04/19,10:20,0.370,0.229,0.384,0.356,0.327,0.187,0.157,west-northwest,6.2,Yes
2017/04/19,10:30,0.374,0.229,0.385,0.354,0.327,0.187,0.157,west-northwest,4.9,Yes
2017/04/19,10:40,0.372,0.228,0.385,0.356,0.327,0.189,0.157,west-northwest,9.0,No
2017/04/19,10:50,0.375,0.229,0.387,0.353,0.329,0.188,0.158,west-northwest,5.9,No
2017/04/19,11:00,0.372,0.228,0.385,0.356,0.327,0.188,0.158,west-northwest,6.5,No
2017/04/19,11:10,0.372,0.230,0.385,0.353,0.329,0.188,0.159,west-northwest,6.9,No
2017/04/19,11:20,0.370,0.229,0.384,0.356,0.326,0.188,0.158,west-northwest,7.3,No
2017/04/19,11:30,0.374,0.229,0.386,0.354,0.328,0.189,0.158,west-northwest,7.5,No
2017/04/19,11:40,0.371,0.229,0.384,0.356,0.325,0.188,0.158,west-northwest,9.5,No
2017/04/19,11:50,0.374,0.229,0.387,0.354,0.328,0.188,0.159,west-northwest,9.8,No
2017/04/19,12:00,0.370,0.228,0.382,0.356,0.325,0.188,0.159,west-northwest,13.5,No
2017/04/19,12:10,0.374,0.229,0.386,0.356,0.328,0.188,0.158,west,11.0,No
2017/04/19,12:20,0.371,0.228,0.385,0.351,0.325,0.188,0.158,west-northwest,9.9,No
2017/04/19,12:30,0.372,0.230,0.379,0.355,0.326,0.188,0.157,west-northwest,10.4,No
2017/04/19,12:40,0.372,0.227,0.385,0.353,0.328,0.189,0.159,west-northwest,12.6,No
2017/04/19,12:50,0.371,0.230,0.383,0.352,0.324,0.188,0.158,west,14.4,No
2017/04/19,13:00,0.374,0.228,0.382,0.353,0.325,0.187,0.159,west,8.6,No
2017/04/19,13:10,0.372,0.229,0.387,0.356,0.327,0.188,0.159,west-northwest,6.0,No
2017/04/19,13:20,0.374,0.230,0.385,0.354,0.326,0.189,0.158,west-northwest,11.7,No
2017/04/19,13:30,0.374,0.227,0.382,0.352,0.324,0.188,0.157,west-northwest,10.4,No
2017/04/19,13:40,0.370,0.230,0.382,0.353,0.329,0.188,0.159,west,8.4,No
2017/04/19,13:50,0.373,0.231,0.387,0.357,0.327,0.188,0.158,west,10.7,No
2017/04/19,14:00,0.373,0.229,0.387,0.356,0.326,0.188,0.159,west-northwest,10.1,No
2017/04/19,14:10,0.372,0.230,0.383,0.354,0.324,0.187,0.158,west,10.7,No
2017/04/19,14:20,0.375,0.229,0.384,0.352,0.328,0.190,0.158,west,14.3,No
2017/04/19,14:30,0.373,0.230,0.387,0.358,0.327,0.189,0.158,west,10.4,No
2017/04/19,14:40,0.373,0.229,0.384,0.357,0.324,0.187,0.159,west,13.0,No
2017/04/19,14:50,0.374,0.230,0.384,0.355,0.328,0.188,0.159,west,13.8,No
2017/04/19,15:00,0.373,0.231,0.388,0.359,0.328,0.190,0.159,west,15.7,No
2017/04/19,15:10,0.374,0.230,0.385,0.357,0.325,0.188,0.160,west,13.0,No
2017/04/19,15:20,0.376,0.230,0.389,0.360,0.327,0.189,0.159,west-northwest,14.0,No
2017/04/19,15:30,0.374,0.231,0.386,0.358,0.328,0.189,0.160,west,9.5,No
2017/04/19,15:40,0.375,0.230,0.390,0.360,0.325,0.188,0.159,west,12.4,No
2017/04/19,15:50,0.373,0.231,0.388,0.357,0.328,0.190,0.160,west-northwest,9.2,No
2017/04/19,16:00,0.374,0.231,0.390,0.359,0.327,0.189,0.160,west-northwest,7.4,No
2017/04/19,16:10,0.374,0.231,0.389,0.356,0.328,0.190,0.160,west,12.9,No
2017/04/19,16:20,0.376,0.230,0.389,0.359,0.329,0.189,0.159,west,15.5,No
2017/04/19,16:30,0.374,0.231,0.390,0.357,0.327,0.189,0.160,west-northwest,11.8,No
2017/04/19,16:40,0.378,0.232,0.389,0.359,0.331,0.190,0.161,west,11.8,No
2017/04/19,16:50,0.374,0.230,0.388,0.358,0.329,0.189,0.161,west,15.4,No
2017/04/19,17:00,0.375,0.230,0.389,0.358,0.328,0.189,0.159,west,19.7,No
2017/04/19,17:10,0.373,0.230,0.388,0.359,0.329,0.190,0.159,west,18.4,No
2017/04/19,17:20,0.373,0.229,0.390,0.357,0.328,0.189,0.159,west,24.3,No
2017/04/19,17:30,0.376,0.229,0.388,0.358,0.329,0.189,0.160,west,21.1,No
2017/04/19,17:40,0.375,0.230,0.387,0.359,0.327,0.188,0.160,west-northwest,14.9,No
2017/04/19,17:50,0.374,0.231,0.390,0.359,0.328,0.189,0.161,west,13.0,No
2017/04/19,18:00,0.377,0.231,0.389,0.359,0.331,0.189,0.159,west,13.2,No
2017/04/19,18:10,0.377,0.230,0.389,0.358,0.329,0.190,0.161,west,13.9,No
2017/04/19,18:20,0.377,0.231,0.389,0.358,0.329,0.190,0.161,west-northwest,7.3,No
2017/04/19,18:30,0.378,0.233,0.389,0.359,0.331,0.190,0.161,west,9.5,No
2017/04/19,18:40,0.377,0.230,0.390,0.359,0.331,0.190,0.161,west-northwest,9.5,No
2017/04/19,18:50,0.374,0.232,0.389,0.358,0.329,0.190,0.161,west,10.5,No
2017/04/19,19:00,0.378,0.232,0.391,0.359,0.331,0.189,0.161,northwest,7.3,No
2017/04/19,19:10,0.374,0.231,0.388,0.359,0.329,0.190,0.161,west-northwest,10.7,No
2017/04/19,19:20,0.376,0.230,0.389,0.359,0.328,0.189,0.161,west-northwest,12.1,No
2017/04/19,19:30,0.376,0.230,0.390,0.359,0.330,0.189,0.161,west,15.1,No
2017/04/19,19:40,0.375,0.231,0.390,0.359,0.330,0.190,0.161,west,17.5,No
2017/04/19,19:50,0.375,0.232,0.389,0.359,0.329,0.190,0.160,west-northwest,15.5,No
2017/04/19,20:00,0.376,0.231,0.388,0.359,0.329,0.190,0.161,west-northwest,12.4,No
2017/04/19,20:10,0.374,0.231,0.390,0.358,0.330,0.190,0.161,west,15.4,No
2017/04/19,20:20,0.375,0.231,0.389,0.357,0.329,0.191,0.160,west-northwest,18.7,No
2017/04/19,20:30,0.375,0.231,0.390,0.360,0.329,0.190,0.160,west,14.4,No
2017/04/19,20:40,0.376,0.229,0.390,0.359,0.329,0.189,0.160,west,14.9,No
2017/04/19,20:50,0.377,0.230,0.391,0.358,0.330,0.189,0.161,west,14.0,No
2017/04/19,21:00,0.377,0.231,0.390,0.359,0.330,0.189,0.160,northwest,15.0,No
2017/04/19,21:10,0.377,0.232,0.389,0.359,0.329,0.189,0.160,west-northwest,14.0,No
2017/04/19,21:20,0.376,0.231,0.392,0.359,0.331,0.190,0.160,west-northwest,15.0,No
2017/04/19,21:30,0.377,0.231,0.390,0.360,0.329,0.191,0.161,west-northwest,7.8,No
2017/04/19,21:40,0.378,0.232,0.390,0.360,0.329,0.191,0.160,northwest,9.0,No
2017/04/19,21:50,0.378,0.231,0.392,0.359,0.329,0.189,0.160,northwest,7.4,No
2017/04/19,22:00,0.377,0.231,0.391,0.358,0.330,0.190,0.161,north-northwest,8.7,No
2017/04/19,22:10,0.375,0.230,0.388,0.359,0.330,0.190,0.160,northwest,6.8,No
2017/04/19,22:20,0.378,0.232,0.390,0.360,0.329,0.190,0.160,northwest,10.0,No
2017/04/19,22:30,0.375,0.231,0.389,0.359,0.330,0.190,0.160,northwest,3.5,No
2017/04/19,22:40,0.377,0.232,0.389,0.360,0.329,0.191,0.161,west,1.5,No
2017/04/19,22:50,0.377,0.232,0.390,0.360,0.330,0.190,0.161,northwest,4.7,No
2017/04/19,23:00,0.375,0.233,0.391,0.359,0.330,0.190,0.161,east-southeast,0.6,No
2017/04/19,23:10,0.375,0.232,0.389,0.361,0.331,0.190,0.161,north-northeast,2.2,No
2017/04/19,23:20,0.377,0.231,0.389,0.359,0.329,0.190,0.161,north,5.0,No
2017/04/19,23:30,0.376,0.230,0.391,0.359,0.330,0.190,0.160,north,5.8,No
2017/04/19,23:40,0.376,0.232,0.388,0.359,0.329,0.190,0.161,northeast,3.1,No
2017/04/19,23:50,0.378,0.232,0.388,0.358,0.329,0.189,0.160,north-northwest,4.8,No
